timestamp,surface_pressure_avg,surface_temp_avg,battery_voltage,lat,long
2023-07-07 00:09:00+00:00,303.933,11.7,12.81,47.84626,-54.09684
2023-07-07 00:19:00+00:00,318.363,11.67,12.73,47.84626,-54.09684
2023-07-07 00:29:00+00:00,326.9764,11.7,12.73,47.84626,-54.09684
2023-07-07 00:39:00+00:00,330.4597,11.7,12.73,47.84626,-54.09684
2023-07-07 00:49:00+00:00,338.668,11.71,12.73,47.84626,-54.09684
2023-07-07 00:59:00+00:00,350.1763,11.8,12.73,47.84626,-54.09684
2023-07-07 01:09:00+00:00,355.4663,11.87,12.73,47.84626,-54.09684
2023-07-07 01:19:00+00:00,357.5646,11.78,12.73,47.84626,-54.09684
2023-07-07 01:29:00+00:00,364.9396,11.71,12.73,47.84626,-54.09684
2023-07-07 01:39:00+00:00,372.2979,11.87,12.73,47.84626,-54.09684
2023-07-07 01:49:00+00:00,374.3629,11.9,12.73,47.84626,-54.09684
2023-07-07 01:59:00+00:00,376.9913,11.8,12.73,47.84626,-54.09684
2023-07-07 02:09:00+00:00,386.1412,11.75,12.73,47.84626,-54.09684
2023-07-07 02:19:00+00:00,387.2312,11.7,12.65,47.84626,-54.09684
2023-07-07 02:29:00+00:00,385.3996,11.7,12.65,47.84626,-54.09684
2023-07-07 02:39:00+00:00,387.1263,11.63,12.65,47.84626,-54.09684
2023-07-07 02:49:00+00:00,389.2562,11.7,12.65,47.84626,-54.09684
2023-07-07 02:59:00+00:00,386.6279,11.7,12.65,47.84626,-54.09684
2023-07-07 03:09:00+00:00,381.6378,11.8,12.65,47.84626,-54.09684
2023-07-07 03:19:00+00:00,379.2296,11.91,12.65,47.84626,-54.09684
2023-07-07 03:29:00+00:00,376.9046,11.8,12.65,47.84626,-54.09684
2023-07-07 03:39:00+00:00,371.0847,11.78,12.65,47.84626,-54.09684
2023-07-07 03:49:00+00:00,367.1479,12.04,12.65,47.84626,-54.09684
2023-07-07 03:59:00+00:00,364.4529,12.2,12.65,47.84626,-54.09684
2023-07-07 04:09:00+00:00,358.1912,12.27,12.65,47.84626,-54.09684
2023-07-07 04:19:01+00:00,351.4813,12.4,12.65,47.84626,-54.09684
2023-07-07 04:29:01+00:00,343.9128,12.5,12.65,47.84626,-54.09684
2023-07-07 04:39:01+00:00,337.093,12.58,12.65,47.84626,-54.09684
2023-07-07 04:49:01+00:00,328.2897,12.7,12.65,47.84626,-54.09684
2023-07-07 04:59:01+00:00,315.9913,12.77,12.65,47.84626,-54.09684
2023-07-07 05:09:01+00:00,306.6497,12.88,12.65,47.84626,-54.09684
2023-07-07 05:19:00+00:00,298.1897,13.01,12.65,47.84626,-54.09684
2023-07-07 05:29:00+00:00,285.2131,13.2,12.65,47.84626,-54.09684
2023-07-07 05:39:00+00:00,270.8514,13.19,12.65,47.84626,-54.09684
2023-07-07 05:49:00+00:00,266.4264,13.19,12.65,47.84626,-54.09684
2023-07-07 05:59:00+00:00,259.7398,13.25,12.65,47.84626,-54.09684
2023-07-07 06:09:00+00:00,246.3065,13.37,12.65,47.84626,-54.09684
2023-07-07 06:19:00+00:00,235.8481,13.58,12.65,47.84626,-54.09684
2023-07-07 06:29:00+00:00,230.9598,13.69,12.65,47.84626,-54.09684
2023-07-07 06:39:00+00:00,223.3114,13.8,12.65,47.84626,-54.09684
2023-07-07 06:49:00+00:00,212.5547,13.9,12.65,47.84626,-54.09684
2023-07-07 06:59:00+00:00,205.5415,13.9,12.65,47.84626,-54.09684
2023-07-07 07:09:00+00:00,201.3614,13.9,12.65,47.84626,-54.09684
2023-07-07 07:19:00+00:00,194.3765,14.05,12.57,47.84626,-54.09684
2023-07-07 07:29:00+00:00,188.7798,14.15,12.57,47.84626,-54.09684
2023-07-07 07:39:00+00:00,184.5598,14.28,12.57,47.84626,-54.09684
2023-07-07 07:49:00+00:00,180.4682,14.54,12.57,47.84626,-54.09684
2023-07-07 07:59:00+00:00,180.9415,14.6,12.57,47.84626,-54.09684
2023-07-07 08:09:00+00:00,183.9031,14.6,12.57,47.84626,-54.09684
2023-07-07 08:19:00+00:00,183.7298,14.6,12.57,47.84626,-54.09684
2023-07-07 08:29:00+00:00,182.8165,14.4,12.57,47.84626,-54.09684
2023-07-07 08:39:00+00:00,184.8598,14.4,12.57,47.84626,-54.09684
2023-07-07 08:49:00+00:00,188.4998,14.5,12.57,47.84626,-54.09684
2023-07-07 08:59:00+00:00,190.9182,14.4,12.57,47.84626,-54.09684
2023-07-07 09:09:00+00:00,192.7498,14.3,12.57,47.84626,-54.09684
2023-07-07 09:19:00+00:00,196.1364,14.3,12.65,47.84626,-54.09684
2023-07-07 09:29:00+00:00,200.8131,14.0,12.65,47.84626,-54.09684
2023-07-07 09:39:00+00:00,202.2798,13.9,12.65,47.84626,-54.09684
2023-07-07 09:49:00+00:00,202.4415,14.0,12.65,47.84626,-54.09684
2023-07-07 09:59:00+00:00,205.9381,14.13,12.65,47.84626,-54.09684
2023-07-07 10:09:00+00:00,208.3731,14.15,12.65,47.84626,-54.09684
2023-07-07 10:19:00+00:00,208.6981,14.17,12.65,47.84626,-54.09684
2023-07-07 10:29:00+00:00,210.9565,14.14,12.65,47.84626,-54.09684
2023-07-07 10:39:00+00:00,216.4447,13.56,12.65,47.84626,-54.09684
2023-07-07 10:49:00+00:00,219.1547,13.64,12.65,47.84626,-54.09684
2023-07-07 10:59:00+00:00,221.4598,12.69,12.65,47.84626,-54.09684
2023-07-07 11:09:00+00:00,223.9214,12.8,12.65,47.84626,-54.09684
2023-07-07 11:19:00+00:00,229.6814,12.56,12.81,47.84626,-54.09684
2023-07-07 11:29:00+00:00,235.0414,12.3,12.81,47.84626,-54.09684
2023-07-07 11:39:00+00:00,240.1864,12.3,12.81,47.84626,-54.09684
2023-07-07 11:49:00+00:00,245.8331,12.3,12.81,47.84626,-54.09684
2023-07-07 11:59:00+00:00,254.3064,12.2,12.81,47.84626,-54.09684
2023-07-07 12:09:00+00:00,262.0564,12.2,12.81,47.84626,-54.09684
2023-07-07 12:19:00+00:00,268.8997,12.24,13.6,47.84626,-54.09684
2023-07-07 12:29:00+00:00,277.6881,12.2,13.6,47.84626,-54.09684
2023-07-07 12:39:00+00:00,288.288,12.2,13.6,47.84626,-54.09684
2023-07-07 12:49:00+00:00,294.8564,12.2,13.6,47.84626,-54.09684
2023-07-07 12:59:00+00:00,303.3713,12.2,13.6,47.84626,-54.09684
2023-07-07 13:09:00+00:00,312.443,12.2,13.6,47.84626,-54.09684
2023-07-07 13:19:00+00:00,319.0397,12.2,13.68,47.84626,-54.09684
2023-07-07 13:29:00+00:00,320.613,12.2,13.68,47.84626,-54.09684
2023-07-07 13:39:00+00:00,328.4663,12.19,13.68,47.84626,-54.09684
2023-07-07 13:49:00+00:00,334.8947,12.18,13.68,47.84626,-54.09684
2023-07-07 13:59:00+00:00,337.24300000000005,12.1,13.68,47.84626,-54.09684
2023-07-07 14:09:00+00:00,338.2846,12.1,13.68,47.84626,-54.09684
2023-07-07 14:19:00+00:00,343.7779,12.09,13.76,47.84626,-54.09684
2023-07-07 14:29:00+00:00,349.8063,12.0,13.76,47.84626,-54.09684
2023-07-07 14:39:00+00:00,347.838,12.0,13.76,47.84626,-54.09684
2023-07-07 14:49:00+00:00,347.0463,12.0,13.76,47.84626,-54.09684
2023-07-07 14:59:00+00:00,350.9396,12.0,13.76,47.84626,-54.09684
2023-07-07 15:09:00+00:00,351.0729,12.0,13.76,47.84626,-54.09684
2023-07-07 15:19:00+00:00,348.4213,12.0,14.0,47.84626,-54.09684
2023-07-07 15:29:00+00:00,349.8429,11.9,14.0,47.84626,-54.09684
2023-07-07 15:39:00+00:00,349.2663,11.9,14.0,47.84626,-54.09684
2023-07-07 15:49:00+00:00,344.2397,11.91,14.0,47.84626,-54.09684
2023-07-07 15:59:00+00:00,341.8363,11.9,14.0,47.84626,-54.09684
2023-07-07 16:09:00+00:00,341.9213,11.9,14.0,47.84626,-54.09684
2023-07-07 16:19:00+00:00,335.8614,11.99,13.84,47.84626,-54.09684
2023-07-07 16:29:00+00:00,329.8813,12.0,13.84,47.84626,-54.09684
2023-07-07 16:39:00+00:00,327.798,12.02,13.84,47.84626,-54.09684
2023-07-07 16:49:00+00:00,321.9464,12.1,13.84,47.84626,-54.09684
2023-07-07 16:59:00+00:00,310.9497,12.1,13.84,47.84626,-54.09684
2023-07-07 17:09:00+00:00,304.5564,12.1,13.84,47.84626,-54.09684
2023-07-07 17:19:00+00:00,298.1197,12.2,13.76,47.84626,-54.09684
2023-07-07 17:29:00+00:00,284.808,12.3,13.76,47.84626,-54.09684
2023-07-07 17:39:00+00:00,273.3881,12.3,13.76,47.84626,-54.09684
2023-07-07 17:49:00+00:00,269.5547,12.3,13.76,47.84626,-54.09684
2023-07-07 17:59:00+00:00,261.1747,12.4,13.76,47.84626,-54.09684
2023-07-07 18:09:00+00:00,246.7498,12.5,13.76,47.84626,-54.09684
2023-07-07 18:19:00+00:00,239.1931,12.5,13.68,47.84626,-54.09684
2023-07-07 18:29:00+00:00,236.1564,13.06,13.68,47.84626,-54.09684
2023-07-07 18:39:00+00:00,229.0614,14.08,13.68,47.84626,-54.09684
2023-07-07 18:49:00+00:00,218.0314,14.2,13.68,47.84626,-54.09684
2023-07-07 18:59:00+00:00,210.9598,14.28,13.68,47.84626,-54.09684
2023-07-07 19:09:00+00:00,206.4831,14.36,13.68,47.84626,-54.09684
2023-07-07 19:19:00+00:00,199.6698,14.4,13.6,47.84626,-54.09684
2023-07-07 19:29:00+00:00,193.8298,14.4,13.6,47.84626,-54.09684
2023-07-07 19:39:00+00:00,189.7915,14.5,13.6,47.84626,-54.09684
2023-07-07 19:49:00+00:00,186.5531,14.52,13.6,47.84626,-54.09684
2023-07-07 19:59:00+00:00,187.1314,14.56,13.6,47.84626,-54.09684
2023-07-07 20:09:00+00:00,185.9431,14.6,13.6,47.84626,-54.09684
2023-07-07 20:19:00+00:00,185.6065,14.6,13.44,47.84626,-54.09684
2023-07-07 20:29:00+00:00,188.8565,14.6,13.44,47.84626,-54.09684
2023-07-07 20:39:00+00:00,189.2381,14.62,13.44,47.84626,-54.09684
2023-07-07 20:49:00+00:00,186.1015,14.79,13.44,47.84626,-54.09684
2023-07-07 20:59:00+00:00,185.3214,15.0,13.44,47.84626,-54.09684
2023-07-07 21:09:00+00:00,191.2731,15.0,13.44,47.84626,-54.09684
2023-07-07 21:19:00+00:00,193.4398,14.9,13.29,47.84626,-54.09684
2023-07-07 21:29:00+00:00,193.3348,15.05,13.29,47.84626,-54.09684
2023-07-07 21:39:00+00:00,197.3898,15.0,13.29,47.84626,-54.09684
2023-07-07 21:49:00+00:00,203.4181,14.99,13.29,47.84626,-54.09684
2023-07-07 21:59:00+00:00,204.4565,14.97,13.29,47.84626,-54.09684
2023-07-07 22:09:00+00:00,206.1115,14.95,13.29,47.84626,-54.09684
2023-07-07 22:19:00+00:00,212.7798,14.9,13.13,47.84626,-54.09684
2023-07-07 22:29:00+00:00,216.3631,14.89,13.13,47.84626,-54.09684
2023-07-07 22:39:00+00:00,217.0364,14.8,13.13,47.84626,-54.09684
2023-07-07 22:49:00+00:00,218.8398,14.67,13.13,47.84626,-54.09684
2023-07-07 22:59:00+00:00,223.4814,14.73,13.13,47.84626,-54.09684
2023-07-07 23:09:00+00:00,227.7848,14.8,13.13,47.84626,-54.09684
2023-07-07 23:19:00+00:00,229.6748,14.6,12.97,47.84626,-54.09684
2023-07-07 23:29:00+00:00,234.0915,14.6,12.97,47.84626,-54.09684
2023-07-07 23:39:00+00:00,240.1781,14.75,12.97,47.84626,-54.09684
2023-07-07 23:49:00+00:00,245.1231,14.68,12.97,47.84626,-54.09684
2023-07-07 23:59:00+00:00,251.3914,14.4,12.97,47.84626,-54.09684
